Monte Cimone, Italy

10:01 PM CEST on May 24, 2017 (GMT +0200)
Monte Cimone

Weather History for LIVC - October, 2013

Change the Weather History Date:

Tuesday, October 1, 2013

  Actual Average Record
Temperature  
Mean Temperature 46 °F -  
Max Temperature 51 °F 43 °F 53 °F (2007)
Min Temperature 42 °F 35 °F 28 °F (2015)
Degree Days  
Heating Degree Days 18    
Moisture  
Dew Point 42 °F    
Average Humidity 83    
Maximum Humidity 100    
Minimum Humidity 68    
Precipitation  
Precipitation 0.00 in 0.11 in - ()
Sea Level Pressure  
Sea Level Pressure 29.92 in    
Wind  
Wind Speed 9 mph ()    
Max Wind Speed 18 mph    
Max Gust Speed -    
Visibility 3.5 miles    
Events Fog    
Averages and records for this station are not official NWS values.
T = Trace of Precipitation, MM = Missing Value Source: Averaged Metar Reports

Daily Weather History Graph

Daily Weather History Graph

Search for Another Location

Airport or City:

Trip Planner

Search our weather history database for the weather conditions in past years. The results will help you decide how hot, cold, wet, or windy it might be!

Date:

Astronomy

Oct. 01, 2013 Rise Set
Actual Time 7:14 AM CEST 6:58 PM CEST
Civil Twilight 6:46 AM CEST 7:26 PM CEST
Nautical Twilight 6:12 AM CEST 8:00 PM CEST
Astronomical Twilight 5:38 AM CEST 8:34 PM CEST
Moon 3:26 AM CEST (10/1) 4:58 PM CEST (10/1)
Length of Visible Light 12h 40m
Length of Day
11h 43m
Waning Crescent, 14% of the Moon is Illuminated
Oct 1
Waning Crescent
Oct 5
New
Oct 12
First Quarter
Oct 19
Full
Oct 27
Last Quarter

Hourly Weather History & Observations

Time (CEST) Temp. Windchill Dew Point Humidity Pressure Visibility Wind Dir Wind Speed Gust Speed Precip Events Conditions
12:55 AM 42.8 °F 35.8 °F 42.8 °F 100% 29.86 in 0.0 mi North 13.8 mph - N/A Fog Fog
1:55 AM 42.8 °F 35.8 °F 42.8 °F 100% 29.86 in 0.0 mi North 13.8 mph - N/A Fog Fog
2:00 AM 44 °F - 44 °F 97%  in 0 mi North 13.8 mph - - Fog Heavy Fog
2:55 AM 42.8 °F 35.1 °F 41.0 °F 93% 29.86 in 0.0 mi North 16.1 mph - N/A Fog Fog
3:55 AM 42.8 °F 34.5 °F 42.8 °F 100% 29.86 in 0.0 mi North 18.4 mph - N/A Fog Fog
4:55 AM 42.8 °F 34.8 °F 41.0 °F 93% 29.86 in 0.0 mi North 17.3 mph - N/A Fog Fog
5:55 AM 44.6 °F 39.2 °F 39.2 °F 81% 29.86 in - NNE 10.4 mph - N/A   Clear
6:55 AM 44.6 °F - 39.2 °F 81% 29.86 in - Calm Calm - N/A   Clear
7:55 AM 44.6 °F 39.7 °F 39.2 °F 81% 29.89 in - NW 9.2 mph - N/A   Clear
8:00 AM 45 °F - 39 °F 72%  in 19 mi NW 9.2 mph - -   Partly Cloudy
8:55 AM 46.4 °F 41.5 °F 39.2 °F 76% 29.89 in 6.2 mi West 10.4 mph - N/A   Scattered Clouds
9:55 AM 48.2 °F - 41.0 °F 76% 29.89 in - WSW 9.2 mph - N/A   Clear
11:55 AM 50.0 °F - 42.8 °F 76% 29.92 in 6.2 mi West 5.8 mph - N/A   Partly Cloudy
12:55 PM 51.8 °F - 42.8 °F 71% 29.92 in 6.2 mi West 5.8 mph - N/A   Partly Cloudy
1:55 PM 51.8 °F - 44.6 °F 76% 29.95 in 6.2 mi West 8.1 mph - N/A   Mostly Cloudy
2:00 PM 52 °F - 44 °F 68%  in 12 mi West 8.1 mph - -   Mostly Cloudy
2:55 PM 50.0 °F - 44.6 °F 82% 29.95 in 0.1 mi West 10.4 mph - N/A Fog Fog
3:55 PM 50.0 °F - 46.4 °F 87% 29.95 in 0.1 mi West 9.2 mph - N/A Fog Fog
4:55 PM 50.0 °F - 46.4 °F 87% 29.95 in 0.1 mi West 8.1 mph - N/A Fog Fog
5:55 PM 50.0 °F - 46.4 °F 87% 29.95 in 0.1 mi West 4.6 mph - N/A Fog Fog
6:55 PM 48.2 °F - 46.4 °F 93% 29.95 in 0.1 mi West 6.9 mph - N/A Fog Fog
7:55 PM 48.2 °F - 46.4 °F 93% 29.98 in 0.1 mi Calm Calm - N/A Fog Fog
8:00 PM 49 °F - 46 °F 87%  in 0 mi Calm Calm - - Fog Heavy Fog
8:55 PM 48.2 °F - 39.2 °F 71% 29.98 in 6.2 mi West 10.4 mph - N/A   Scattered Clouds
9:55 PM 48.2 °F - 39.2 °F 71% 29.98 in 6.2 mi West 10.4 mph - N/A   Scattered Clouds
10:55 PM 48.2 °F - 39.2 °F 71% 29.98 in 6.2 mi West 10.4 mph - N/A   Scattered Clouds
11:55 PM 48.2 °F - 39.2 °F 71% 30.01 in 6.2 mi WNW 11.5 mph - N/A   Scattered Clouds